Location: Benque
(43.2594°N, 0.9178°E)
Time: 07:26:27
(UTC+00:00)

USA 32 - Pass Details

Date: 24 January 2020
Orbit: 777 x 783 km, 85.0° (Epoch: 29 January)

Event Time Altitude Azimuth Distance (km) Brightness Sun altitude
Rises 17:50:19 0° 182° (S) 3,244 7.5 -9.9°
Reaches altitude 10° 17:52:39 10° 182° (S) 2,321 6.7 -10.3°
Maximum altitude 17:57:52 87° 97° (E) 784 4.0 -11.2°
Drops below altitude 10° 18:03:07 10° 6° (N) 2,338 6.3 -12.1°
Sets 18:05:29 0° 6° (N) 3,270 7.1 -12.5°
